GW3067 Weather Reports


time (UTC)temp
C
wind
direction
speed
KPH
gust
KPH
rain 1hr
cm
rain 24hr
cm
rain mn
cm
humidity
%
barometer
mb
20260502234547 20 298 6.4 19.3 0.00 0.00 0.00 23 1015.4
20260502233051 20 335 4.8 16.1 0.00 0.00 0.00 24 1015.5
20260502231549 20 328 6.4 20.9 0.00 0.00 0.00 23 1015.7
20260502230051 20 315 4.8 12.9 0.00 0.00 0.00 23 1015.8
20260502224549 20 279 1.6 12.9 0.00 0.00 0.00 25 1016.0
20260502223048 20 272 6.4 17.7 0.00 0.00 0.00 28 1016.2
20260502221548 19 253 9.7 19.3 0.00 0.00 0.00 24 1016.4
20260502220048 19 53 6.4 16.1 0.00 0.00 0.00 27 1016.6
20260502214548 20 293 8.0 20.9 0.00 0.00 0.00 27 1017.0
20260502213102 19 272 4.8 20.9 0.00 0.00 0.00 26 1017.0
20260502211551 20 305 8.0 22.5 0.00 0.00 0.00 26 1017.0
20260502210052 19 191 4.8 14.5 0.00 0.00 0.00 28 1017.2
20260502204547 18 0 6.4 16.1 0.00 0.00 0.00 31 1017.4
20260502203052 18 273 6.4 27.4 0.00 0.00 0.00 26 1017.6
20260502201550 18 240 12.9 25.7 0.00 0.00 0.00 31 1017.7
20260502200107 18 336 8.0 17.7 0.00 0.00 0.00 31 1017.7
20260502194604 18 13 9.7 20.9 0.00 0.00 0.00 32 1018.0
20260502193050 17 26 3.2 14.5 0.00 0.00 0.00 34 1018.2
20260502191556 17 316 3.2 14.5 0.00 0.00 0.00 37 1018.5
20260502190047 17 276 3.2 12.9 0.00 0.00 0.00 38 1018.7
20260502184550 16 352 6.4 16.1 0.00 0.00 0.00 41 1018.8
20260502183049 16 346 6.4 16.1 0.00 0.00 0.00 43 1018.9
20260502181549 15 13 8.0 19.3 0.00 0.00 0.00 43 1019.0
20260502163052 13 49 4.8 16.1 0.00 0.00 0.00 50 1019.5
20260502161550 11 316 4.8 9.7 0.00 0.00 0.00 58 1019.6
20260502151601 7 325 3.2 8.0 0.00 0.00 0.00 64 1020.1
20260502150124 6 249 4.8 8.0 0.00 0.00 0.00 70 1020.2
20260502130105 0 171 3.2 6.4 0.00 0.00 0.00 88 1020.4
20260502123051 0 171 1.6 6.4 0.00 0.00 0.00 85 1020.1
20260502121602 0 0 0.0 0.0 0.00 0.00 0.00 86 1020.0
20260502120113 0 0 0.0 4.8 0.00 0.00 0.00 84 1019.9
20260502114556 0 171 0.0 3.2 0.00 0.00 0.00 83 1019.8
20260502113109 1 0 0.0 3.2 0.00 0.00 0.00 83 1019.8
20260502111555 1 0 0.0 3.2 0.00 0.00 0.00 81 1019.5
20260502110053 1 0 0.0 6.4 0.00 0.00 0.00 81 1019.5
20260502104550 1 0 0.0 0.0 0.00 0.00 0.00 80 1019.2
20260502103112 1 0 0.0 3.2 0.00 0.00 0.00 78 1019.1
20260502101553 1 171 1.6 3.2 0.00 0.00 0.00 77 1018.9
20260502070059 4 173 1.6 8.0 0.00 0.00 0.00 65 1018.8
20260502064547 5 173 1.6 8.0 0.00 0.00 0.00 63 1018.6
20260502063055 5 173 1.6 9.7 0.00 0.00 0.00 61 1018.6
20260502061551 5 173 4.8 8.0 0.00 0.00 0.00 62 1018.6
20260502054607 6 150 3.2 11.3 0.00 0.00 0.00 55 1018.3
20260502053051 6 160 4.8 14.5 0.00 0.00 0.00 54 1018.3
20260502051554 7 176 6.4 14.5 0.00 0.00 0.00 52 1018.2
20260502050054 7 163 8.0 22.5 0.00 0.00 0.00 50 1018.2
20260502044549 8 164 9.7 19.3 0.00 0.00 0.00 49 1018.2
20260502043057 8 180 8.0 17.7 0.00 0.00 0.00 48 1018.3
20260502041553 8 178 4.8 14.5 0.00 0.00 0.00 49 1018.3
20260502040052 9 145 8.0 16.1 0.00 0.00 0.00 46 1018.2
20260502034551 10 177 8.0 14.5 0.00 0.00 0.00 46 1018.2
20260502033048 10 176 6.4 16.1 0.00 0.00 0.00 44 1018.0
20260502031551 10 158 8.0 14.5 0.00 0.00 0.00 44 1017.9
20260502030103 11 159 8.0 12.9 0.00 0.00 0.00 42 1017.7
20260502024547 11 177 4.8 11.3 0.00 0.00 0.00 40 1017.5
20260502023057 12 178 6.4 11.3 0.00 0.00 0.00 38 1017.5
20260502021548 15 156 4.8 9.7 0.00 0.00 0.00 31 1017.4
20260502020051 17 223 1.6 8.0 0.00 0.00 0.00 27 1017.4
20260502014551 18 254 0.0 14.5 0.00 0.00 0.00 26 1017.5
20260502013056 19 0 1.6 9.7 0.00 0.00 0.00 21 1017.2
20260502011549 19 274 3.2 11.3 0.00 0.00 0.00 22 1017.2
20260502010056 19 345 3.2 12.9 0.00 0.00 0.00 18 1017.2
20260502004546 19 296 9.7 17.7 0.00 0.00 0.00 19 1017.3
20260502003049 19 313 6.4 16.1 0.00 0.00 0.00 19 1017.4
20260502001549 20 244 3.2 12.9 0.00 0.00 0.00 19 1017.4
20260502000050 19 332 8.0 20.9 0.00 0.00 0.00 19 1017.5